,,PA_Meas_PMT16A,,PR_Meas_QMR101_102,,RH_Meas_QMH101,,SR_Meas_QMS101,,TA_Meas_QMH101,,GenWind,,GenWind,
time,status,PA,status,PR,status,RH,status,SR,status,TA,status,DirAvg,status,SpdAvg,
2011-12-07, 00:00:04,VALID,916.388,VALID,0,VALID,94.8887,VALID,0,VALID,19.6653,VALID,148,VALID,0.752734,
2011-12-07, 00:01:04,VALID,916.378,VALID,0,VALID,95.0716,VALID,0,VALID,19.5858,VALID,148,VALID,0.880859,
2011-12-07, 00:02:04,VALID,916.355,VALID,0,VALID,95.3537,VALID,0,VALID,19.5873,VALID,148,VALID,1.08945,
2011-12-07, 00:03:04,VALID,916.337,VALID,0,VALID,95.8035,VALID,0,VALID,19.6263,VALID,148,VALID,1.21914,
2011-12-07, 00:04:04,VALID,916.352,VALID,0,VALID,96.0474,VALID,0,VALID,19.7028,VALID,148,VALID,1.14727,
2011-12-07, 00:05:04,VALID,916.292,VALID,0,VALID,96.2151,VALID,0,VALID,19.8003,VALID,148,VALID,0.924219,
2011-12-07, 00:06:04,VALID,916.292,VALID,0,VALID,96.177,VALID,0,VALID,19.8588,VALID,148,VALID,0.901953,
2011-12-07, 00:07:04,VALID,916.307,VALID,0,VALID,96.0703,VALID,0,VALID,19.8993,VALID,148,VALID,0.778125,
2011-12-07, 00:08:04,VALID,916.293,VALID,0,VALID,95.9254,VALID,0,VALID,19.8783,VALID,148,VALID,0.416797,
2011-12-07, 00:09:04,VALID,916.299,VALID,0,VALID,95.834,VALID,0,VALID,19.8588,VALID,148,VALID,0.0523437,
2011-12-07, 00:10:04,VALID,916.285,VALID,0,VALID,95.7654,VALID,0,VALID,19.8393,VALID,148,VALID,0.355469,
2011-12-07, 00:11:04,VALID,916.265,VALID,0,VALID,95.8035,VALID,0,VALID,19.8393,VALID,148,VALID,0.544141,
2011-12-07, 00:12:04,VALID,916.247,VALID,0,VALID,95.7958,VALID,0,VALID,19.8798,VALID,148,VALID,0.708203,
2011-12-07, 00:13:04,VALID,916.179,VALID,0,VALID,95.7272,VALID,0,VALID,19.8003,VALID,148,VALID,0.646484,
2011-12-07, 00:14:04,VALID,916.191,VALID,0,VALID,95.773,VALID,0,VALID,19.8003,VALID,148,VALID,0.498047,
2011-12-07, 00:15:04,VALID,916.166,VALID,0,VALID,95.834,VALID,0,VALID,19.8003,VALID,148,VALID,0.851953,
2011-12-07, 00:16:04,VALID,916.151,VALID,0,VALID,95.8263,VALID,0,VALID,19.8003,VALID,148,VALID,0.6875,
2011-12-07, 00:17:04,VALID,916.128,VALID,0,VALID,95.9254,VALID,0,VALID,19.8003,VALID,148,VALID,0.742578,
2011-12-07, 00:18:04,VALID,916.124,VALID,0,VALID,95.9636,VALID,0,VALID,19.7808,VALID,148,VALID,0.690625,
2011-12-07, 00:19:04,VALID,916.15,VALID,0,VALID,95.895,VALID,0,VALID,19.7808,VALID,148,VALID,0.632422,
2011-12-07, 00:20:04,VALID,916.154,VALID,0,VALID,95.8645,VALID,0,VALID,19.7418,VALID,148,VALID,0.623828,
2011-12-07, 00:21:04,VALID,916.185,VALID,0,VALID,95.8035,VALID,0,VALID,19.6833,VALID,148,VALID,0.657812,
2011-12-07, 00:22:04,VALID,916.169,VALID,0,VALID,95.7958,VALID,0,VALID,19.6848,VALID,148,VALID,0.468359,
2011-12-07, 00:23:04,VALID,916.159,VALID,0,VALID,95.7349,VALID,0,VALID,19.6248,VALID,148,VALID,0.744922,
2011-12-07, 00:24:04,VALID,916.134,VALID,0,VALID,95.8721,VALID,0,VALID,19.6638,VALID,148,VALID,0.701563,
2011-12-07, 00:25:04,VALID,916.148,VALID,0,VALID,95.9178,VALID,0,VALID,19.6443,VALID,148,VALID,0.674219,
2011-12-07, 00:26:04,VALID,916.115,VALID,0,VALID,96.0779,VALID,0,VALID,19.6833,VALID,148,VALID,0.340234,
2011-12-07, 00:27:04,VALID,916.119,VALID,0,VALID,96.1313,VALID,0,VALID,19.7223,VALID,148,VALID,0.709766,
2011-12-07, 00:28:04,VALID,916.111,VALID,0,VALID,96.0855,VALID,0,VALID,19.7418,VALID,148,VALID,0.418359,
2011-12-07, 00:29:04,VALID,916.089,VALID,0,VALID,96.1846,VALID,0,VALID,19.7808,VALID,148,VALID,0.477734,
2011-12-07, 00:30:04,VALID,916.088,VALID,0,VALID,96.1236,VALID,0,VALID,19.8003,VALID,148,VALID,0.510156,
2011-12-07, 00:31:04,VALID,916.05,VALID,0,VALID,96.1389,VALID,0,VALID,19.8603,VALID,148,VALID,0.671484,
2011-12-07, 00:32:04,VALID,916.047,VALID,0,VALID,96.0779,VALID,0,VALID,19.8978,VALID,148,VALID,0.729688,
2011-12-07, 00:33:04,VALID,916.034,VALID,0,VALID,96.0398,VALID,0,VALID,19.9758,VALID,148,VALID,0.695703,
2011-12-07, 00:34:04,VALID,916.055,VALID,0,VALID,95.9178,VALID,0,VALID,19.9758,VALID,148,VALID,0.411719,
2011-12-07, 00:35:04,VALID,916.052,VALID,0,VALID,95.7349,VALID,0,VALID,19.9758,VALID,148,VALID,0.170312,
2011-12-07, 00:36:04,VALID,916.045,VALID,0,VALID,95.6815,VALID,0,VALID,20.0163,VALID,148,VALID,0.537109,
2011-12-07, 00:37:04,VALID,916.061,VALID,0,VALID,95.6586,VALID,0,VALID,20.0163,VALID,148,VALID,0.358203,
2011-12-07, 00:38:04,VALID,916.028,VALID,0,VALID,95.6281,VALID,0,VALID,19.9953,VALID,148,VALID,0.141797,
2011-12-07, 00:39:04,VALID,916.038,VALID,0,VALID,95.2698,VALID,0,VALID,19.9578,VALID,148,VALID,0.274219,
2011-12-07, 00:40:04,VALID,916.037,VALID,0,VALID,95.2088,VALID,0,VALID,19.8978,VALID,148,VALID,0.582812,
2011-12-07, 00:41:04,VALID,916.008,VALID,0,VALID,95.4909,VALID,0,VALID,19.8993,VALID,148,VALID,0.798437,
2011-12-07, 00:42:04,VALID,916.033,VALID,0,VALID,95.0183,VALID,0,VALID,19.7823,VALID,148,VALID,0.717578,
2011-12-07, 00:43:04,VALID,916.046,VALID,0,VALID,94.942,VALID,0,VALID,19.6848,VALID,148,VALID,0.714453,
2011-12-07, 00:44:04,VALID,916.035,VALID,0,VALID,95.3994,VALID,0,VALID,19.6848,VALID,148,VALID,0.611719,
2011-12-07, 00:45:04,VALID,916.033,VALID,0,VALID,95.7577,VALID,0,VALID,19.7238,VALID,148,VALID,0.666797,
2011-12-07, 00:46:04,VALID,916.021,VALID,0,VALID,95.8873,VALID,0,VALID,19.7433,VALID,148,VALID,0.80625,
2011-12-07, 00:47:04,VALID,916.011,VALID,0,VALID,95.9712,VALID,0,VALID,19.7628,VALID,148,VALID,0.787891,
2011-12-07, 00:48:04,VALID,915.958,VALID,0,VALID,96.1084,VALID,0,VALID,19.8213,VALID,148,VALID,0.976953,
2011-12-07, 00:49:04,VALID,915.944,VALID,0,VALID,96.1389,VALID,0,VALID,19.8993,VALID,148,VALID,0.767969,
2011-12-07, 00:50:04,VALID,915.915,VALID,0,VALID,96.116,VALID,0,VALID,19.9368,VALID,148,VALID,0.628906,
2011-12-07, 00:51:04,VALID,915.931,VALID,0,VALID,95.9941,VALID,0,VALID,19.9578,VALID,148,VALID,0.764063,
2011-12-07, 00:52:04,VALID,915.933,VALID,0,VALID,95.9102,VALID,0,VALID,19.9563,VALID,148,VALID,0.724609,
2011-12-07, 00:53:04,VALID,915.947,VALID,0,VALID,95.8035,VALID,0,VALID,19.9578,VALID,148,VALID,0.738672,
2011-12-07, 00:54:04,VALID,915.974,VALID,0,VALID,95.7806,VALID,0,VALID,19.9563,VALID,148,VALID,0.685156,
2011-12-07, 00:55:04,VALID,915.964,VALID,0,VALID,95.7044,VALID,0,VALID,19.9578,VALID,148,VALID,0.704297,
2011-12-07, 00:56:04,VALID,915.967,VALID,0,VALID,95.7272,VALID,0,VALID,19.9368,VALID,148,VALID,1.04023,
2011-12-07, 00:57:04,VALID,915.97,VALID,0,VALID,95.8263,VALID,0,VALID,19.9968,VALID,148,VALID,1.24023,
2011-12-07, 00:58:04,VALID,915.951,VALID,0,VALID,95.8263,VALID,0,VALID,20.0148,VALID,147,VALID,1.28984,
2011-12-07, 00:59:04,VALID,915.922,VALID,0,VALID,95.7501,VALID,0,VALID,20.0749,VALID,126,VALID,0.951172,
2011-12-07, 01:00:04,VALID,915.943,VALID,0,VALID,95.6053,VALID,0,VALID,20.0749,VALID,126,VALID,0.700391,
2011-12-07, 01:01:04,VALID,915.923,VALID,0,VALID,95.5062,VALID,0,VALID,20.0749,VALID,127,VALID,0.930078,
2011-12-07, 01:02:04,VALID,915.916,VALID,0,VALID,95.5138,VALID,0,VALID,20.0733,VALID,127,VALID,1.06758,
2011-12-07, 01:03:04,VALID,915.926,VALID,0,VALID,95.5138,VALID,0,VALID,20.0749,VALID,127,VALID,0.783203,
2011-12-07, 01:04:04,VALID,915.871,VALID,0,VALID,95.4604,VALID,0,VALID,20.0553,VALID,127,VALID,0.575391,
2011-12-07, 01:05:04,VALID,915.883,VALID,0,VALID,95.5595,VALID,0,VALID,20.0343,VALID,127,VALID,0.823047,
2011-12-07, 01:06:04,VALID,915.843,VALID,0,VALID,95.6815,VALID,0,VALID,20.0553,VALID,127,VALID,0.833203,
2011-12-07, 01:07:04,VALID,915.838,VALID,0,VALID,95.7349,VALID,0,VALID,20.0553,VALID,127,VALID,0.857422,
2011-12-07, 01:08:04,VALID,915.823,VALID,0,VALID,95.8263,VALID,0,VALID,20.0553,VALID,127,VALID,0.682813,
2011-12-07, 01:09:04,VALID,915.782,VALID,0,VALID,95.8416,VALID,0,VALID,20.0148,VALID,127,VALID,0.636328,
2011-12-07, 01:10:04,VALID,915.763,VALID,0,VALID,95.9254,VALID,0,VALID,20.0538,VALID,142,VALID,0.763281,
2011-12-07, 01:11:04,VALID,915.754,VALID,0,VALID,95.9864,VALID,0,VALID,20.0733,VALID,142,VALID,0.773438,
2011-12-07, 01:12:04,VALID,915.749,VALID,0,VALID,95.9407,VALID,0,VALID,20.0944,VALID,142,VALID,0.649219,
2011-12-07, 01:13:04,VALID,915.698,VALID,0,VALID,96.0245,VALID,0,VALID,20.0928,VALID,142,VALID,0.682422,
2011-12-07, 01:14:04,VALID,915.712,VALID,0,VALID,96.0017,VALID,0,VALID,20.1139,VALID,142,VALID,0.713281,
2011-12-07, 01:15:04,VALID,915.663,VALID,0,VALID,95.9559,VALID,0,VALID,20.1334,VALID,142,VALID,0.755859,
2011-12-07, 01:16:04,VALID,915.632,VALID,0,VALID,95.9483,VALID,0,VALID,20.1334,VALID,142,VALID,0.864062,
2011-12-07, 01:17:04,VALID,915.639,VALID,0,VALID,95.9102,VALID,0,VALID,20.0928,VALID,142,VALID,0.790234,
2011-12-07, 01:18:04,VALID,915.643,VALID,0,VALID,95.9178,VALID,0.107441,VALID,20.0913,VALID,142,VALID,0.636328,
2011-12-07, 01:19:04,VALID,915.636,VALID,0,VALID,95.8263,VALID,0,VALID,20.0523,VALID,142,VALID,0.467969,
2011-12-07, 01:20:04,VALID,915.635,VALID,0,VALID,95.8492,VALID,0,VALID,20.0538,VALID,125,VALID,0.988281,
2011-12-07, 01:21:04,VALID,915.645,VALID,0,VALID,95.7501,VALID,0,VALID,20.0148,VALID,126,VALID,0.925781,
2011-12-07, 01:22:04,VALID,915.647,VALID,0,VALID,95.6967,VALID,0,VALID,19.9758,VALID,125,VALID,0.810156,
2011-12-07, 01:23:04,VALID,915.661,VALID,0,VALID,95.8263,VALID,0,VALID,19.9548,VALID,125,VALID,0.794531,
2011-12-07, 01:24:04,VALID,915.634,VALID,0,VALID,95.9483,VALID,0,VALID,19.9938,VALID,125,VALID,1.10664,
2011-12-07, 01:25:04,VALID,915.614,VALID,0,VALID,95.9331,VALID,0,VALID,19.9953,VALID,125,VALID,1.02227,
2011-12-07, 01:26:04,VALID,915.602,VALID,0,VALID,95.9026,VALID,0,VALID,19.9353,VALID,125,VALID,0.925781,
2011-12-07, 01:27:04,VALID,915.583,VALID,0,VALID,95.8721,VALID,0,VALID,19.8963,VALID,125,VALID,0.763672,
2011-12-07, 01:28:04,VALID,915.595,VALID,0,VALID,95.8873,VALID,0,VALID,19.8378,VALID,125,VALID,0.078125,
2011-12-07, 01:29:04,VALID,915.587,VALID,0,VALID,95.8568,VALID,0.107441,VALID,19.7793,VALID,125,VALID,0.545313,
2011-12-07, 01:30:04,VALID,915.581,VALID,0,VALID,96.0245,VALID,0.107441,VALID,19.7808,VALID,149,VALID,1.01172,
2011-12-07, 01:31:04,VALID,915.601,VALID,0,VALID,96.1313,VALID,0,VALID,19.8198,VALID,149,VALID,0.755078,
2011-12-07, 01:32:04,VALID,915.562,VALID,0,VALID,96.1999,VALID,0,VALID,19.8198,VALID,149,VALID,0.815625,
2011-12-07, 01:33:04,VALID,915.573,VALID,0,VALID,96.1999,VALID,0,VALID,19.7793,VALID,149,VALID,0.758984,
2011-12-07, 01:34:04,VALID,915.555,VALID,0,VALID,96.1389,VALID,0.107441,VALID,19.7208,VALID,149,VALID,0.905859,
2011-12-07, 01:35:04,VALID,915.552,VALID,0,VALID,96.1084,VALID,0.107441,VALID,19.6428,VALID,149,VALID,0.866797,
2011-12-07, 01:36:04,VALID,915.576,VALID,0,VALID,96.1541,VALID,0,VALID,19.6053,VALID,149,VALID,0.670703,
2011-12-07, 01:37:04,VALID,915.553,VALID,0,VALID,96.2685,VALID,0,VALID,19.5648,VALID,149,VALID,0.626562,
2011-12-07, 01:38:04,VALID,915.55,VALID,0,VALID,96.3524,VALID,0,VALID,19.5453,VALID,149,VALID,0.662109,
2011-12-07, 01:39:04,VALID,915.536,VALID,0,VALID,96.421,VALID,0.107441,VALID,19.5453,VALID,149,VALID,0.686719,
2011-12-07, 01:40:04,VALID,915.535,VALID,0,VALID,96.5124,VALID,0,VALID,19.5648,VALID,149,VALID,0.374219,
2011-12-07, 01:41:04,VALID,915.54,VALID,0,VALID,96.5506,VALID,0.107441,VALID,19.5648,VALID,149,VALID,0.00117188,
2011-12-07, 01:42:04,VALID,915.535,VALID,0,VALID,96.5963,VALID,0.107441,VALID,19.5648,VALID,149,VALID,0.379687,
2011-12-07, 01:43:04,VALID,915.5,VALID,0,VALID,96.6649,VALID,0,VALID,19.6248,VALID,149,VALID,0.492578,
2011-12-07, 01:44:04,VALID,915.509,VALID,0,VALID,96.7488,VALID,0,VALID,19.6428,VALID,149,VALID,0.847266,
2011-12-07, 01:45:04,VALID,915.483,VALID,0,VALID,96.7945,VALID,0.107441,VALID,19.7028,VALID,149,VALID,0.687891,
2011-12-07, 01:46:04,VALID,915.508,VALID,0,VALID,96.7793,VALID,0,VALID,19.6833,VALID,149,VALID,0.485547,
2011-12-07, 01:47:04,VALID,915.494,VALID,0,VALID,96.7259,VALID,0,VALID,19.6818,VALID,159,VALID,0.448438,
2011-12-07, 01:48:04,VALID,915.468,VALID,0,VALID,96.7183,VALID,0,VALID,19.7238,VALID,159,VALID,0.432031,
2011-12-07, 01:49:04,VALID,915.472,VALID,0,VALID,96.703,VALID,0,VALID,19.7433,VALID,159,VALID,0.403516,
2011-12-07, 01:50:04,VALID,915.479,VALID,0,VALID,96.6497,VALID,0,VALID,19.7223,VALID,159,VALID,0.458594,
2011-12-07, 01:51:04,VALID,915.448,VALID,0,VALID,96.6268,VALID,0,VALID,19.7823,VALID,159,VALID,0.695313,
2011-12-07, 01:52:04,VALID,915.428,VALID,0,VALID,96.5048,VALID,0,VALID,19.7433,VALID,158,VALID,0.390625,
2011-12-07, 01:53:04,VALID,915.402,VALID,0,VALID,96.3447,VALID,0,VALID,19.7043,VALID,158,VALID,0.705859,
2011-12-07, 01:54:04,VALID,915.414,VALID,0,VALID,96.3905,VALID,0,VALID,19.6848,VALID,158,VALID,0.564062,
2011-12-07, 01:55:04,VALID,915.415,VALID,0,VALID,96.4133,VALID,0,VALID,19.6848,VALID,158,VALID,0.392578,
2011-12-07, 01:56:04,VALID,915.377,VALID,0,VALID,96.4667,VALID,0,VALID,19.7043,VALID,158,VALID,0.674609,
2011-12-07, 01:57:04,VALID,915.354,VALID,0,VALID,96.4819,VALID,0,VALID,19.7028,VALID,157,VALID,0.3125,
2011-12-07, 01:58:04,VALID,915.336,VALID,0,VALID,96.4362,VALID,0,VALID,19.7238,VALID,157,VALID,0.115625,
2011-12-07, 01:59:04,VALID,915.337,VALID,0,VALID,96.3295,VALID,0,VALID,19.6653,VALID,158,VALID,0.118359,
2011-12-07, 02:00:04,VALID,915.328,VALID,0,VALID,96.3676,VALID,0,VALID,19.6848,VALID,157,VALID,0.663672,
2011-12-07, 02:01:04,VALID,915.329,VALID,0,VALID,96.3981,VALID,0,VALID,19.7043,VALID,143,VALID,0.881641,
2011-12-07, 02:02:04,VALID,915.295,VALID,0,VALID,96.4133,VALID,0,VALID,19.7238,VALID,137,VALID,1.00156,
2011-12-07, 02:03:04,VALID,915.296,VALID,0,VALID,96.4057,VALID,0,VALID,19.7223,VALID,137,VALID,1.12266,
2011-12-07, 02:04:04,VALID,915.327,VALID,0,VALID,96.3524,VALID,0,VALID,19.7628,VALID,137,VALID,0.950781,
2011-12-07, 02:05:04,VALID,915.34,VALID,0,VALID,96.2533,VALID,0,VALID,19.7418,VALID,137,VALID,0.823828,
2011-12-07, 02:06:04,VALID,915.338,VALID,0,VALID,96.055,VALID,0,VALID,19.6833,VALID,137,VALID,0.424609,
2011-12-07, 02:07:04,VALID,915.372,VALID,0,VALID,95.8568,VALID,0,VALID,19.6053,VALID,137,VALID,0.480078,
2011-12-07, 02:08:04,VALID,915.35,VALID,0,VALID,95.712,VALID,0,VALID,19.5468,VALID,137,VALID,0.499219,
2011-12-07, 02:09:04,VALID,915.387,VALID,0,VALID,95.3689,VALID,0,VALID,19.3908,VALID,137,VALID,0.839063,
2011-12-07, 02:10:04,VALID,915.368,VALID,0,VALID,95.773,VALID,0,VALID,19.3908,VALID,137,VALID,0.923437,
2011-12-07, 02:11:04,VALID,915.398,VALID,0,VALID,96.0627,VALID,0,VALID,19.4508,VALID,137,VALID,0.790625,
2011-12-07, 02:12:04,VALID,915.372,VALID,0,VALID,95.9864,VALID,0,VALID,19.3728,VALID,137,VALID,0.592188,
2011-12-07, 02:13:04,VALID,915.369,VALID,0,VALID,96.0779,VALID,0,VALID,19.3533,VALID,137,VALID,0.518359,
2011-12-07, 02:14:04,VALID,915.362,VALID,0,VALID,96.1923,VALID,0,VALID,19.3533,VALID,137,VALID,0.192578,
2011-12-07, 02:15:04,VALID,915.349,VALID,0,VALID,96.3219,VALID,0,VALID,19.3728,VALID,137,VALID,0,
2011-12-07, 02:16:04,VALID,915.319,VALID,0,VALID,96.4286,VALID,0,VALID,19.3923,VALID,137,VALID,0,
2011-12-07, 02:17:04,VALID,915.328,VALID,0,VALID,96.3447,VALID,0,VALID,19.3533,VALID,137,VALID,0,
2011-12-07, 02:18:04,VALID,915.312,VALID,0,VALID,96.4286,VALID,0,VALID,19.3518,VALID,137,VALID,0,
2011-12-07, 02:19:04,VALID,915.281,VALID,0,VALID,96.4438,VALID,0,VALID,19.3503,VALID,137,VALID,0,
2011-12-07, 02:20:04,VALID,915.29,VALID,0,VALID,96.4133,VALID,0,VALID,19.3518,VALID,137,VALID,0,
2011-12-07, 02:21:04,VALID,915.257,VALID,0,VALID,96.4438,VALID,0,VALID,19.3323,VALID,137,VALID,0,
2011-12-07, 02:22:04,VALID,915.217,VALID,0,VALID,96.3829,VALID,0,VALID,19.3128,VALID,137,VALID,0,
2011-12-07, 02:23:04,VALID,915.206,VALID,0,VALID,96.3295,VALID,0,VALID,19.2738,VALID,137,VALID,0.0253906,
2011-12-07, 02:24:04,VALID,915.213,VALID,0,VALID,96.2456,VALID,0,VALID,19.2348,VALID,137,VALID,0.599609,
2011-12-07, 02:25:04,VALID,915.178,VALID,0,VALID,96.3219,VALID,0.107441,VALID,19.2139,VALID,137,VALID,0.451562,
2011-12-07, 02:26:04,VALID,915.214,VALID,0,VALID,96.3829,VALID,0,VALID,19.2348,VALID,137,VALID,0.424609,
2011-12-07, 02:27:04,VALID,915.152,VALID,0,VALID,96.4591,VALID,0,VALID,19.2334,VALID,137,VALID,0.428516,
2011-12-07, 02:28:04,VALID,915.17,VALID,0,VALID,96.4972,VALID,0,VALID,19.2738,VALID,137,VALID,0.574219,
2011-12-07, 02:29:04,VALID,915.197,VALID,0,VALID,96.7183,VALID,0,VALID,19.4298,VALID,137,VALID,0.569922,
2011-12-07, 02:30:04,VALID,915.174,VALID,0,VALID,96.8555,VALID,0,VALID,19.4868,VALID,137,VALID,0.521484,
2011-12-07, 02:31:04,VALID,915.185,VALID,0,VALID,96.7107,VALID,0,VALID,19.4883,VALID,137,VALID,0.641016,
2011-12-07, 02:32:04,VALID,915.188,VALID,0,VALID,96.6344,VALID,0,VALID,19.4688,VALID,137,VALID,0.462891,
2011-12-07, 02:33:04,VALID,915.171,VALID,0,VALID,96.6954,VALID,0,VALID,19.4688,VALID,137,VALID,0.495313,
2011-12-07, 02:34:04,VALID,915.141,VALID,0,VALID,96.6725,VALID,0,VALID,19.4478,VALID,137,VALID,0.163672,
2011-12-07, 02:35:04,VALID,915.117,VALID,0,VALID,96.5887,VALID,0,VALID,19.4493,VALID,137,VALID,0.442969,
2011-12-07, 02:36:04,VALID,915.115,VALID,0,VALID,96.6268,VALID,0.107441,VALID,19.4493,VALID,137,VALID,0.694922,
2011-12-07, 02:37:04,VALID,915.1,VALID,0,VALID,96.6497,VALID,0,VALID,19.4688,VALID,137,VALID,0.692969,
2011-12-07, 02:38:04,VALID,915.096,VALID,0,VALID,96.5811,VALID,0,VALID,19.4478,VALID,137,VALID,0.704687,
2011-12-07, 02:39:04,VALID,915.076,VALID,0,VALID,96.6649,VALID,0,VALID,19.5063,VALID,137,VALID,0.722656,
2011-12-07, 02:40:04,VALID,915.071,VALID,0,VALID,96.6039,VALID,0.107441,VALID,19.4868,VALID,137,VALID,0.728125,
2011-12-07, 02:41:04,VALID,915.059,VALID,0,VALID,96.6192,VALID,0.107441,VALID,19.5273,VALID,137,VALID,0.622656,
2011-12-07, 02:42:04,VALID,915.036,VALID,0,VALID,96.6192,VALID,0,VALID,19.5258,VALID,137,VALID,0.50625,
2011-12-07, 02:43:04,VALID,915.007,VALID,0,VALID,96.6192,VALID,0,VALID,19.5258,VALID,137,VALID,0.640625,
2011-12-07, 02:44:04,VALID,915,VALID,0,VALID,96.6115,VALID,0.107441,VALID,19.5258,VALID,137,VALID,0.328125,
2011-12-07, 02:45:04,VALID,914.996,VALID,0,VALID,96.6268,VALID,0,VALID,19.5468,VALID,137,VALID,0.454688,
2011-12-07, 02:46:04,VALID,914.974,VALID,0,VALID,96.5582,VALID,0.107441,VALID,19.5063,VALID,137,VALID,0.519141,
2011-12-07, 02:47:04,VALID,914.943,VALID,0,VALID,96.5506,VALID,0.107441,VALID,19.5078,VALID,137,VALID,0.637891,
2011-12-07, 02:48:04,VALID,914.979,VALID,0,VALID,96.5277,VALID,0,VALID,19.4883,VALID,137,VALID,0.658203,
2011-12-07, 02:49:04,VALID,914.985,VALID,0,VALID,96.5124,VALID,0,VALID,19.4478,VALID,137,VALID,0.575781,
2011-12-07, 02:50:04,VALID,914.98,VALID,0,VALID,96.4896,VALID,0.107441,VALID,19.4088,VALID,137,VALID,0.429688,
2011-12-07, 02:51:04,VALID,915.01,VALID,0,VALID,96.4819,VALID,0,VALID,19.3698,VALID,137,VALID,0.301953,
2011-12-07, 02:52:04,VALID,914.983,VALID,0,VALID,96.4591,VALID,0.107441,VALID,19.3713,VALID,137,VALID,0.395703,
2011-12-07, 02:53:04,VALID,914.984,VALID,0,VALID,96.4972,VALID,0,VALID,19.3713,VALID,137,VALID,0.265625,
2011-12-07, 02:54:04,VALID,914.949,VALID,0,VALID,96.5124,VALID,0,VALID,19.3503,VALID,137,VALID,0.265625,
2011-12-07, 02:55:04,VALID,914.938,VALID,0,VALID,96.5124,VALID,0,VALID,19.3713,VALID,137,VALID,0.219531,
2011-12-07, 02:56:04,VALID,914.918,VALID,0,VALID,96.2837,VALID,0,VALID,19.2738,VALID,137,VALID,0.246875,
2011-12-07, 02:57:04,VALID,914.935,VALID,0,VALID,96.1541,VALID,0,VALID,19.2153,VALID,137,VALID,0,
2011-12-07, 02:58:04,VALID,914.956,VALID,0,VALID,96.2228,VALID,0,VALID,19.1568,VALID,137,VALID,0,
2011-12-07, 02:59:04,VALID,914.931,VALID,0,VALID,96.3219,VALID,0,VALID,19.1373,VALID,137,VALID,0,
2011-12-07, 03:00:04,VALID,914.942,VALID,0,VALID,96.4515,VALID,0,VALID,19.1568,VALID,137,VALID,0,
2011-12-07, 03:01:04,VALID,914.881,VALID,0,VALID,96.5811,VALID,0,VALID,19.1958,VALID,137,VALID,0,
2011-12-07, 03:02:04,VALID,914.853,VALID,0,VALID,96.6878,VALID,0,VALID,19.2543,VALID,137,VALID,0,
2011-12-07, 03:03:04,VALID,914.833,VALID,0,VALID,96.7488,VALID,0,VALID,19.2543,VALID,137,VALID,0,
2011-12-07, 03:04:04,VALID,914.794,VALID,0,VALID,96.5811,VALID,0,VALID,19.1763,VALID,137,VALID,0,
2011-12-07, 03:05:04,VALID,914.76,VALID,0,VALID,96.5963,VALID,0,VALID,19.1763,VALID,137,VALID,0,
2011-12-07, 03:06:04,VALID,914.76,VALID,0,VALID,96.5734,VALID,0,VALID,19.0983,VALID,137,VALID,0,
2011-12-07, 03:07:04,VALID,914.738,VALID,0,VALID,96.7945,VALID,0,VALID,19.1763,VALID,137,VALID,0,
2011-12-07, 03:08:04,VALID,914.728,VALID,0,VALID,96.8479,VALID,0,VALID,19.1944,VALID,137,VALID,0,
2011-12-07, 03:09:04,VALID,914.738,VALID,0,VALID,96.9241,VALID,0,VALID,19.2334,VALID,137,VALID,0,
2011-12-07, 03:10:04,VALID,914.759,VALID,0,VALID,96.9622,VALID,0,VALID,19.3128,VALID,137,VALID,0,
2011-12-07, 03:11:04,VALID,914.733,VALID,0,VALID,96.9851,VALID,0,VALID,19.3128,VALID,137,VALID,0,
2011-12-07, 03:12:04,VALID,914.749,VALID,0,VALID,97.0156,VALID,0,VALID,19.3323,VALID,137,VALID,0,
2011-12-07, 03:13:04,VALID,914.728,VALID,0,VALID,97.0385,VALID,0,VALID,19.3713,VALID,137,VALID,0,
2011-12-07, 03:14:04,VALID,914.732,VALID,0,VALID,97.0842,VALID,0,VALID,19.4088,VALID,137,VALID,0,
2011-12-07, 03:15:04,VALID,914.69,VALID,0,VALID,97.1223,VALID,0,VALID,19.4478,VALID,137,VALID,0,
2011-12-07, 03:16:04,VALID,914.7,VALID,0,VALID,97.1147,VALID,0,VALID,19.4883,VALID,137,VALID,0,
2011-12-07, 03:17:04,VALID,914.644,VALID,0,VALID,97.1071,VALID,0,VALID,19.4868,VALID,137,VALID,0,
2011-12-07, 03:18:04,VALID,914.652,VALID,0,VALID,97.1223,VALID,0,VALID,19.5258,VALID,137,VALID,0.569531,
2011-12-07, 03:19:04,VALID,914.667,VALID,0,VALID,97.1528,VALID,0,VALID,19.6053,VALID,137,VALID,0.645703,
2011-12-07, 03:20:04,VALID,914.647,VALID,0,VALID,97.1299,VALID,0,VALID,19.6443,VALID,137,VALID,0.652344,
2011-12-07, 03:21:04,VALID,914.693,VALID,0,VALID,97.0156,VALID,0,VALID,19.6443,VALID,137,VALID,0.3625,
2011-12-07, 03:22:04,VALID,914.726,VALID,0,VALID,96.9698,VALID,0,VALID,19.6248,VALID,137,VALID,0.439844,
2011-12-07, 03:23:04,VALID,914.726,VALID,0,VALID,96.8707,VALID,0,VALID,19.5858,VALID,137,VALID,0.673047,
2011-12-07, 03:24:04,VALID,914.746,VALID,0,VALID,96.8784,VALID,0,VALID,19.6053,VALID,137,VALID,0.829687,
2011-12-07, 03:25:04,VALID,914.735,VALID,0,VALID,96.8631,VALID,0,VALID,19.6053,VALID,137,VALID,0.854297,
2011-12-07, 03:26:04,VALID,914.753,VALID,0,VALID,96.8784,VALID,0.107441,VALID,19.6248,VALID,137,VALID,0.734766,
2011-12-07, 03:27:04,VALID,914.754,VALID,0,VALID,96.825,VALID,0,VALID,19.6053,VALID,137,VALID,0.673047,
2011-12-07, 03:28:04,VALID,914.736,VALID,0,VALID,96.9394,VALID,0,VALID,19.6638,VALID,137,VALID,0.638672,
2011-12-07, 03:29:04,VALID,914.715,VALID,0,VALID,96.8784,VALID,0,VALID,19.6638,VALID,137,VALID,0.559375,
2011-12-07, 03:30:04,VALID,914.71,VALID,0,VALID,96.8326,VALID,0,VALID,19.6638,VALID,137,VALID,0.502344,
2011-12-07, 03:31:04,VALID,914.737,VALID,0,VALID,96.8936,VALID,0,VALID,19.7028,VALID,137,VALID,0.6125,
2011-12-07, 03:32:04,VALID,914.703,VALID,0,VALID,96.8784,VALID,0,VALID,19.7223,VALID,137,VALID,0.610156,
2011-12-07, 03:33:04,VALID,914.74,VALID,0,VALID,96.8326,VALID,0,VALID,19.7238,VALID,137,VALID,0.801953,
2011-12-07, 03:34:04,VALID,914.751,VALID,0,VALID,96.825,VALID,0,VALID,19.7433,VALID,137,VALID,0.711719,
2011-12-07, 03:35:04,VALID,914.767,VALID,0,VALID,96.825,VALID,0,VALID,19.8018,VALID,137,VALID,0.642578,
2011-12-07, 03:36:04,VALID,914.761,VALID,0,VALID,96.7945,VALID,0,VALID,19.8213,VALID,137,VALID,0.648438,
2011-12-07, 03:37:04,VALID,914.746,VALID,0,VALID,96.7335,VALID,0,VALID,19.8003,VALID,137,VALID,0.352734,
2011-12-07, 03:38:04,VALID,914.764,VALID,0,VALID,96.6344,VALID,0,VALID,19.7628,VALID,137,VALID,0.127344,
2011-12-07, 03:39:04,VALID,914.758,VALID,0,VALID,96.5887,VALID,0,VALID,19.7433,VALID,137,VALID,0,
2011-12-07, 03:40:04,VALID,914.758,VALID,0,VALID,96.4438,VALID,0,VALID,19.6458,VALID,137,VALID,0,
2011-12-07, 03:41:04,VALID,914.753,VALID,0,VALID,96.1236,VALID,0,VALID,19.5288,VALID,137,VALID,0.351172,
2011-12-07, 03:42:04,VALID,914.757,VALID,0,VALID,95.6357,VALID,0,VALID,19.3338,VALID,137,VALID,0.385938,
2011-12-07, 03:43:04,VALID,914.758,VALID,0,VALID,95.5748,VALID,0,VALID,19.1763,VALID,137,VALID,0.414453,
2011-12-07, 03:44:04,VALID,914.76,VALID,0,VALID,95.8187,VALID,0,VALID,19.1583,VALID,138,VALID,0.331641,